STARLINK-30095 (56289 NORAD) Tracking and Keplerian Element Data

This shows tracking and keplerian element data for the satellite.

Feedback or suggestion? Click here.




ElementValue
Catalog56289
NameSTARLINK-30095
Epoch Orbit327
Epoch Day127.25001157
Epoch Year2023
RAAN95.5011
Inclination43.0016
Eccentricity0.0002452
Argument of Perigee202.5236
Mean Anonmoly22.791
Mean Motion15.78400335
Decay Rate0.00306716
L11 56289U 23056D 23127.25001157 .00306716 00000+0 16616-2 0 9996
L22 56289 43.0016 95.5011 0002452 202.5236 22.7910 15.78400335 3279



Live tracking and technical data element details for STARLINK-30095 (NORAD 56289). STARLINK-30095 can be tracked NOW for your location showing map with azimuth and elevation plus other details from your city location.







IsCatalogInMostPopularTable: catalog: 56289, numindb: 2
Update: records affected: 1



GetName: 56289 STARLINK-30095

Hit Count: updated at: Sun, 04 Jun 2023 23:53:26 GMT